Погода в Дмитриеве

Россия / Курская область     52°07′39″N   35°04′49″E
темп.,
°C
ветер,
м/с
пор.,
м/с
влажн.,
%
обл.,
%
осадки,
мм/ч
давл.,
гПа
погр.,
м
25 февраля, чт
чт2500:00−5юз3597100 0.1 1030196
03:00−3зюз3797100 0.2 1029248
06:00−1зюз5997100 0.0 1027413
09:000зюз51098100 0.0 1025310
12:00+2зюз612100100 0.1 1023272
15:00+2з614100100 0.1 1022326
18:00+2з511100100 0.0 1022269
21:00+2зсз511100100 0.1 1022259
26 февраля, пт
пт2600:00+2зсз511100100 0.1 1022226
03:00+2з511100100 0.1 1022217
06:00+2з611100100 0.0 1020251
09:00+2зюз61299100 0.0 1019334
12:00+2зюз714100100 0.0 1017419
15:00+2з71399100 0.0 1016350
18:00+2з61499100 0.0 1014375
21:00+2з61398100 0.1 1014422
27 февраля, сб
сб2700:00+1з61396100 0.0 1013509
03:00+1з51196100 0.0 1012439
06:00+1зсз61197100 0.1 1010544
09:00+1з61198100 0.2 1010462
12:00+1зсз61198100 0.1 1010541
15:00+1зсз51099100 0.2 1011469
18:00+1зсз5997100 0.1 1010464
21:000сз4898100 0.3 1012373
28 февраля, вс
вс2800:000ссз4898100 0.1 1012384
03:00−1ссз499599 0.4 1014294
06:00−1ссз599686 0.2 1015401
09:00−2с599489 0.4 1017467
12:00−1с578993 0.1 1019598
15:00−1ссз578797 0.1 1021743
18:00−1ссз4894100 0.1 1022523
21:00−2ссз5993100 0.2 1024579
1 марта, пн
пн100:00−2ссз3695100 0.1 1026405
03:00−3ссз4693100 0.3 1027363
06:00−3ссз3694100 0.1 1028330
09:00−3ссз3688100 0.2 1030597
12:00−2ссз348680 0.1 1031552
15:00−1сз348259 0.1 1031599
18:00−3зсз35903 0.0 1031115
21:00−3зсз389139 0.0 1031192